FENGYUN 1C DEB, 33663

Orbit data source: Space-Track

FENGYUN 1C DEB, 33663 is space debris in SSO originally from a launch on Mon, 10 May 1999 UTC launched from the Taiyaun Space Center, China (TSC). Fengyun 1C debris stems from the Chinese weather satellite Fengyun-1C, which was intentionally destroyed by a Chinese anti-satellite missile in 2007. This event dramatically increased the amount of space debris, with thousands of trackable fragments posing hazards to satellites and human spaceflight. The Fengyun 1C debris cloud has become a focal point in discussions about space sustainability and the need for international regulations to prevent the creation of new debris.

Loading next visibility...
Identifier
33663, 1999-025DEY
Orbit
SSO
Country
Flag of CNCN / PRC
Related business
Manufacturer
Unknown
Mission
Spacecraft
Bus & Motor
Unknown
Mass
Unknown
Launch date (UTC)
1999-05-10 (27 years ago)
Launch vehicle
Unknown
Launch site
Taiyaun Space Center, China (TSC)
Object type
Payload
Rocket body
Debris
Shape & HBR
Unknown shape, 0.1 m
Radar Cross Section
Small (<0.1 m²)

Expand to show TLE details & history
Last TLE update: 1 day ago

TLE from 1 day ago
0 FENGYUN 1C DEB
1 33663U 99025DEY 26234.99342910  .00022482  00000-0  30825-2 0  9998
2 33663  98.8966 253.8533 0057322 307.3618  52.2376 14.77295449679240
Epoch: 2026-08-22T23:50Z
TLE epoch observation values (Epoch: 2026-08-22T23:50:32.274Z)
Latitude
-0.00003°
Longitude
-75.07704°
Altitude
616.372 km
Speed
7.564 km/s
True Right ascension
16h 55m 24s
True Declination
0° 00' 00"
Sunlit
Object was in daylight at epoch
Visualization orbit readout
Latitude
Unknown
Longitude
Unknown
Altitude
Unknown
Speed
Unknown
Apparent Right ascension
Unknown
Apparent Declination
Unknown
Sunlit
N/A
Visualization observer readout
Local Sidereal Time
01:47:00
Azimuth
Unknown
Elevation
Unknown
Doppler factor
Unknown
Orbital elements
Apogee altitude
675.166 km
Perigee altitude
594.765 km
Semi-major axis
7,013.103 km
Eccentricity
0.00573
Inclination
98.8966°
RAAN
253.8533°
Arg. of periapsis
307.3618°
True anomaly
52.75917°
Mean anomaly
52.2376°
Eccentric anomaly
52.49816°
Mean motion
3.69554 °/min
Orbital period
97.41 mins
BSTAR
0.0030825
Loading maneuver chart data...
Computing Atmospheric mass density...

Documentation

Showing up to 5 results
|